Location: Boiro
(42.6475°N, 8.8834°W)
Time: 18:31:58
(UTC+01:00)

Transit 2A - Pass Details

Date: 03 December 2021
Orbit: 591 x 967 km, 66.7° (Epoch: 20 January)

Event Time Altitude Azimuth Distance (km) Brightness Sun altitude
Rises 03:35:30 0° 258° (WSW) 3,366 - -56.0°
Reaches altitude 10° 03:38:31 10° 274° (W) 2,502 - -55.5°
Maximum altitude 03:42:50 21° 322° (NW) 1,930 - -54.8°
Drops below altitude 10° 03:47:23 10° 9° (N) 2,658 - -54.1°
Exits shadow 03:50:30 - 24° (NNE) 3,571 9.8 -53.5°
Sets 03:50:43 0° 25° (NNE) 3,640 9.9 -53.5°
